TimeAKST,TemperatureF,Dew PointF,Humidity,Sea Level PressureIn,VisibilityMPH,Wind Direction,Wind SpeedMPH,Gust SpeedMPH,PrecipitationIn,Events,Conditions,WindDirDegrees,DateUTC
12:53 AM,46.9,46.9,100,30.14,5.0,SE,20.7,33.4,0.07,Rain,Rain,140,2013-02-15 09:53:00
1:00 AM,46.4,46.4,100,30.14,6.0,SE,19.6,33.4,0.02,Rain,Rain,140,2013-02-15 10:00:00
1:53 AM,46.9,46.9,100,30.14,7.0,SE,18.4,32.2,0.08,Rain,Light Rain,140,2013-02-15 10:53:00
2:48 AM,46.4,46.4,100,30.13,7.0,SE,20.7,29.9,0.02,Rain,Light Rain,130,2013-02-15 11:48:00
2:53 AM,46.9,46.9,100,30.14,5.0,SE,18.4,29.9,0.02,Rain,Light Rain,130,2013-02-15 11:53:00
2:58 AM,46.4,46.4,100,30.13,6.0,SE,24.2,31.1,0.01,Rain,Light Rain,130,2013-02-15 11:58:00
3:53 AM,46.9,46.9,100,30.13,8.0,SE,20.7,31.1,0.03,,Overcast,130,2013-02-15 12:53:00
4:18 AM,46.4,46.4,100,30.11,8.0,SE,16.1,28.8,0.00,Rain,Light Rain,140,2013-02-15 13:18:00
4:53 AM,46.0,46.0,100,30.09,8.0,SE,20.7,31.1,0.00,,Overcast,130,2013-02-15 13:53:00
5:03 AM,46.4,46.4,100,30.10,8.0,SE,16.1,26.5,0.00,Rain,Light Rain,140,2013-02-15 14:03:00
5:53 AM,46.9,45.0,93,30.07,10.0,SE,16.1,29.9,0.00,,Overcast,140,2013-02-15 14:53:00
6:00 AM,46.4,44.6,93,30.07,9.0,SE,20.7,34.5,0.00,Rain,Light Rain,140,2013-02-15 15:00:00
6:12 AM,46.4,44.6,93,30.07,6.0,SE,19.6,27.6,0.02,Rain,Light Rain,130,2013-02-15 15:12:00
6:53 AM,46.0,45.0,96,30.05,8.0,SE,20.7,28.8,0.03,Rain,Light Rain,130,2013-02-15 15:53:00
7:53 AM,46.0,45.0,96,30.04,3.0,SE,21.9,34.5,0.13,Rain,Rain,140,2013-02-15 16:53:00
8:53 AM,46.0,45.0,96,30.01,4.0,SE,20.7,33.4,0.15,Rain,Light Rain,140,2013-02-15 17:53:00
9:49 AM,46.4,46.4,100,30.01,3.0,SE,21.9,34.5,0.14,Rain,Rain,140,2013-02-15 18:49:00
9:53 AM,46.0,46.0,100,30.01,3.0,SE,20.7,33.4,0.15,Rain,Rain,140,2013-02-15 18:53:00
10:53 AM,46.0,45.0,96,30.00,3.0,SE,24.2,40.3,0.21,Rain,Rain,130,2013-02-15 19:53:00
11:53 AM,46.4,46.4,100,29.99,3.0,SE,20.7,27.6,N/A,Rain,Rain,130,2013-02-15 20:53:00
12:53 PM,46.0,46.0,100,29.98,3.0,SE,15.0,21.9,0.17,Rain,Rain,140,2013-02-15 21:53:00
1:53 PM,46.0,45.0,96,29.97,3.0,SE,13.8,21.9,0.14,Rain,Rain,130,2013-02-15 22:53:00
2:53 PM,45.0,45.0,100,29.96,4.0,SE,17.3,24.2,0.15,Rain,Rain,130,2013-02-15 23:53:00
3:53 PM,45.0,45.0,100,29.96,4.0,SE,4.6,-,0.12,Rain,Rain,130,2013-02-16 00:53:00
4:51 PM,44.6,42.8,93,29.96,8.0,SE,3.5,-,0.12,Rain,Rain,140,2013-02-16 01:51:00
4:53 PM,44.1,42.1,93,29.96,8.0,SE,5.8,-,0.12,Rain,Rain,130,2013-02-16 01:53:00
5:53 PM,43.0,43.0,100,29.96,10.0,ESE,8.1,-,0.09,Rain,Light Rain,110,2013-02-16 02:53:00
6:43 PM,42.8,42.8,100,29.94,10.0,SSE,5.8,-,0.01,,Overcast,150,2013-02-16 03:43:00
6:53 PM,43.0,42.1,97,29.95,10.0,SSE,4.6,-,0.01,,Overcast,150,2013-02-16 03:53:00
7:53 PM,42.1,42.1,100,29.96,10.0,SSE,3.5,-,0.01,Rain,Light Rain,160,2013-02-16 04:53:00
8:53 PM,42.1,42.1,100,29.96,10.0,SSE,3.5,-,0.01,,Overcast,150,2013-02-16 05:53:00
9:23 PM,41.0,41.0,100,29.96,4.0,North,8.1,-,0.00,Rain,Light Rain,350,2013-02-16 06:23:00
9:44 PM,41.0,41.0,100,29.96,3.0,North,8.1,-,0.03,Rain,Light Rain,360,2013-02-16 06:44:00
9:53 PM,41.0,41.0,100,29.96,3.0,North,6.9,-,0.04,Rain,Light Rain,350,2013-02-16 06:53:00
10:53 PM,41.0,41.0,100,29.97,10.0,NNW,3.5,-,0.05,Rain,Light Rain,330,2013-02-16 07:53:00
11:17 PM,41.0,41.0,100,29.97,10.0,NNW,3.5,-,0.01,Rain,Light Rain,340,2013-02-16 08:17:00
11:28 PM,41.0,41.0,100,29.97,10.0,NNW,4.6,-,0.01,,Overcast,340,2013-02-16 08:28:00
11:53 PM,41.0,41.0,100,29.98,10.0,NNW,5.8,-,0.01,,Overcast,340,2013-02-16 08:53:00